METEOR 2-5 DEB, 38534

Orbit data source: Space-Track

METEOR 2-5 DEB, 38534 is space debris in LEO originally from a launch on Wed, 31 Oct 1979 UTC launched from the Plesetsk Missile And Space Complex (PKMTR). Debris objects in space refer to the collection of defunct objects orbiting the Earth. Examples of debris include non-operational satellites, rocket bodies, and fragments generated from explosions, collisions, or faulty payload assembly.

Loading next visibility...
Identifier
38534, 1979-095CB
Orbit
LEO
Country
Flag of CISCIS
Related business
Manufacturer
Unknown
Mission
Spacecraft
Bus & Motor
Unknown
Mass
Unknown
Launch date (UTC)
1979-10-31 (47 years ago)
Launch vehicle
Unknown
Launch site
Plesetsk Missile And Space Complex (PKMTR)
Object type
Payload
Rocket body
Debris
Shape & HBR
Unknown shape, 0.1 m
Radar Cross Section
Small (<0.1 m²)

Expand to show TLE details & history
Last TLE update: 1 day ago

TLE from 1 day ago
0 METEOR 2-5 DEB
1 38534U 79095CB  26122.85197573  .00004136  00000-0  12671-2 0  9994
2 38534  81.2142 169.7819 0020804  94.1532 266.2034 14.41486755610322
Epoch: 2026-05-02T20:26Z
TLE epoch observation values (Epoch: 2026-05-02T20:26:50.703Z)
Latitude
-0.00003°
Longitude
2.30669°
Altitude
757.545 km
Speed
7.475 km/s
True Right ascension
11h 19m 07s
True Declination
0° 00' 00"
Sunlit
Object was in full shadow at epoch
Visualization orbit readout
Latitude
Unknown
Longitude
Unknown
Altitude
Unknown
Speed
Unknown
Apparent Right ascension
Unknown
Apparent Declination
Unknown
Sunlit
N/A
Visualization observer readout
Local Sidereal Time
12:23:58
Azimuth
Unknown
Elevation
Unknown
Doppler factor
Unknown
Orbital elements
Apogee altitude
765.555 km
Perigee altitude
735.893 km
Semi-major axis
7,128.861 km
Eccentricity
0.00208
Inclination
81.2142°
RAAN
169.7819°
Arg. of periapsis
94.1532°
True anomaly
265.96557°
Mean anomaly
266.2034°
Eccentric anomaly
266.08448°
Mean motion
3.60589 °/min
Orbital period
99.84 mins
BSTAR
0.0012671
Loading maneuver chart data...
Computing Atmospheric mass density...

Documentation

Showing up to 5 results
|